Tracking 31027 objects as of 19-Jul-2025
HD Live streaming from Space Station
objects crossing your sky now

DMSP 5D-2 F13 DEB

Track DMSP 5D-2 F13 DEB now!
10-day predictions


NORAD ID: 42289
Int'l Code: 1995-015HF
Perigee: 663.3 km
Apogee: 694.9 km
Inclination: 98.9 °
Period: 98.2 minutes
Semi major axis: 7050 km
RCS: Unknown
Launch date: March 24, 1995
Source: United States (US)
Launch site: AIR FORCE WESTERN TEST RANGE (AFWTR)

Note: This is SATELLITE DEBRIS
Your satellite tracking list
FENGYUN 1C DEB
Track 1 satellite(s)




NASA's NSSDC Master Catalog

Two Line Element Set (TLE):
1 42289U 95015HF  25199.49768316  .00020137  00000-0  36127-2 0  9999
2 42289  98.8771 215.4875 0022441 198.8962 161.1409 14.66599651526079
Source of the keplerian elements: AFSPC